Private Wetterstation Wechselburg
Wetterdaten: Samstag, 27.03.2021
Datum Zeit Temp. +2m Bodentemp. Temp.+5cm Temp. Wind Windchill X Diff Temp. Feuchte +2m Feuchte +5cm Luftdruck Regen Wind Richtung Richtung Sonnenschein Taupunkt Windchill Windben
27.03.2021 00:00 3,9 C 9,1 C 3,4 C 3,5 C 2,7 C 0,0 C 83 % 87 % 1018,2 hPa 0,0 l/m 0,0 km/h (0 Bft) S 180 0 min 1,3 C 2,7 C 0,0 km/h (0 Bft)
27.03.2021 00:05 3,8 C 9,2 C 3,3 C 3,4 C 2,6 C 0,0 C 82 % 87 % 1018,2 hPa 0,0 l/m 0,0 km/h (0 Bft) S 180 0 min 1,0 C 2,6 C 0,0 km/h (0 Bft)
27.03.2021 00:10 3,7 C 9,1 C 3,2 C 3,3 C 2,5 C 0,0 C 83 % 87 % 1017,8 hPa 0,0 l/m 0,0 km/h (0 Bft) S 180 0 min 1,1 C 2,5 C 0,0 km/h (0 Bft)
27.03.2021 00:15 3,7 C 9,1 C 3,2 C 3,3 C 2,5 C 0,0 C 83 % 87 % 1017,8 hPa 0,0 l/m 0,0 km/h (0 Bft) S 180 0 min 1,1 C 2,5 C 0,0 km/h (0 Bft)
27.03.2021 00:20 3,6 C 9,1 C 3,1 C 3,2 C 2,3 C 0,0 C 83 % 87 % 1017,8 hPa 0,0 l/m 0,0 km/h (0 Bft) S 180 0 min 1,0 C 2,3 C 0,0 km/h (0 Bft)
27.03.2021 00:25 3,5 C 9,1 C 3,1 C 3,1 C 2,2 C 0,0 C 83 % 87 % 1017,8 hPa 0,0 l/m 0,0 km/h (0 Bft) S 180 0 min 0,9 C 2,2 C 0,0 km/h (0 Bft)
27.03.2021 00:30 3,4 C 9,1 C 3,0 C 3,0 C 2,2 C 0,0 C 83 % 87 % 1017,6 hPa 0,0 l/m 0,0 km/h (0 Bft) S 180 0 min 0,8 C 2,2 C 0,0 km/h (0 Bft)
27.03.2021 00:35 3,5 C 9,1 C 2,9 C 3,1 C 2,2 C 0,0 C 83 % 88 % 1017,6 hPa 0,0 l/m 0,0 km/h (0 Bft) S 180 0 min 0,9 C 2,2 C 0,0 km/h (0 Bft)
27.03.2021 00:40 3,3 C 9,1 C 2,8 C 2,9 C 2,1 C 0,0 C 83 % 88 % 1017,6 hPa 0,0 l/m 0,0 km/h (0 Bft) S 180 0 min 0,7 C 2,1 C 0,0 km/h (0 Bft)
27.03.2021 00:45 3,3 C 9,1 C 2,8 C 2,9 C 2,0 C 0,0 C 83 % 88 % 1017,6 hPa 0,0 l/m 0,0 km/h (0 Bft) S 180 0 min 0,7 C 2,0 C 0,0 km/h (0 Bft)
27.03.2021 00:50 3,3 C 9,1 C 2,7 C 2,8 C 1,8 C 0,0 C 83 % 88 % 1017,4 hPa 0,0 l/m 0,0 km/h (0 Bft) S 180 0 min 0,7 C 1,8 C 0,0 km/h (0 Bft)
27.03.2021 00:55 3,2 C 9,1 C 2,7 C 2,7 C 1,8 C 0,0 C 83 % 88 % 1017,4 hPa 0,0 l/m 0,0 km/h (0 Bft) S 180 0 min 0,6 C 1,8 C 0,0 km/h (0 Bft)
27.03.2021 01:00 3,1 C 9,1 C 2,6 C 2,7 C 1,8 C 0,0 C 83 % 88 % 1017,4 hPa 0,0 l/m 0,0 km/h (0 Bft) S 180 0 min 0,5 C 1,8 C 0,0 km/h (0 Bft)
27.03.2021 01:05 3,0 C 8,9 C 2,6 C 2,6 C 1,9 C 0,0 C 84 % 88 % 1017,4 hPa 0,0 l/m 0,0 km/h (0 Bft) S 180 0 min 0,6 C 1,9 C 0,0 km/h (0 Bft)
27.03.2021 01:10 3,1 C 9,1 C 2,6 C 2,7 C 1,8 C 0,0 C 84 % 89 % 1017,1 hPa 0,0 l/m 0,0 km/h (0 Bft) S 180 0 min 0,7 C 1,8 C 0,0 km/h (0 Bft)
27.03.2021 01:15 3,1 C 9,1 C 2,5 C 2,6 C 1,7 C 0,0 C 84 % 89 % 1017,1 hPa 0,0 l/m 0,0 km/h (0 Bft) S 180 0 min 0,7 C 1,7 C 0,0 km/h (0 Bft)
27.03.2021 01:20 2,9 C 8,9 C 2,5 C 2,5 C 1,6 C 0,0 C 84 % 89 % 1017,1 hPa 0,0 l/m 0,0 km/h (0 Bft) S 180 0 min 0,5 C 1,6 C 0,0 km/h (0 Bft)
27.03.2021 01:25 2,8 C 8,9 C 2,5 C 2,4 C 1,6 C 0,0 C 84 % 89 % 1017,1 hPa 0,0 l/m 0,0 km/h (0 Bft) S 180 0 min 0,4 C 1,6 C 0,0 km/h (0 Bft)
27.03.2021 01:30 2,9 C 8,9 C 2,3 C 2,5 C 1,7 C 0,0 C 84 % 89 % 1017,2 hPa 0,0 l/m 0,0 km/h (0 Bft) S 180 0 min 0,5 C 1,7 C 0,0 km/h (0 Bft)
27.03.2021 01:35 2,8 C 8,9 C 2,3 C 2,4 C 1,7 C 0,0 C 84 % 89 % 1017,2 hPa 0,0 l/m 0,0 km/h (0 Bft) S 180 0 min 0,4 C 1,7 C 0,0 km/h (0 Bft)
27.03.2021 01:40 2,8 C 8,9 C 2,3 C 2,5 C 1,8 C 0,0 C 84 % 89 % 1017,2 hPa 0,0 l/m 0,0 km/h (0 Bft) S 180 0 min 0,4 C 1,8 C 0,0 km/h (0 Bft)
27.03.2021 01:45 2,9 C 9,0 C 2,2 C 2,5 C 1,8 C 0,0 C 84 % 89 % 1017,2 hPa 0,0 l/m 0,0 km/h (0 Bft) S 180 0 min 0,5 C 1,8 C 0,0 km/h (0 Bft)
27.03.2021 01:50 2,8 C 9,0 C 2,1 C 2,5 C 1,9 C 0,0 C 85 % 89 % 1017,2 hPa 0,0 l/m 0,0 km/h (0 Bft) S 180 0 min 0,5 C 1,9 C 0,0 km/h (0 Bft)
27.03.2021 01:55 2,8 C 9,0 C 2,2 C 2,5 C 1,9 C 0,0 C 85 % 89 % 1017,2 hPa 0,0 l/m 0,0 km/h (0 Bft) S 180 0 min 0,5 C 1,9 C 0,0 km/h (0 Bft)
27.03.2021 02:00 2,9 C 9,0 C 2,3 C 2,6 C 2,0 C 0,0 C 85 % 90 % 1017,2 hPa 0,0 l/m 0,0 km/h (0 Bft) S 180 0 min 0,6 C 2,0 C 0,0 km/h (0 Bft)
27.03.2021 02:05 2,9 C 9,0 C 2,2 C 2,6 C 2,0 C 0,0 C 85 % 90 % 1017,2 hPa 0,0 l/m 0,0 km/h (0 Bft) S 180 0 min 0,6 C 2,0 C 0,0 km/h (0 Bft)
27.03.2021 02:10 2,9 C 9,0 C 2,2 C 2,6 C 2,0 C 0,0 C 86 % 90 % 1016,8 hPa 0,0 l/m 0,0 km/h (0 Bft) S 180 0 min 0,8 C 2,0 C 0,0 km/h (0 Bft)
27.03.2021 02:15 2,8 C 8,9 C 2,2 C 2,5 C 2,0 C 0,0 C 86 % 90 % 1016,8 hPa 0,0 l/m 0,0 km/h (0 Bft) S 180 0 min 0,7 C 2,0 C 0,0 km/h (0 Bft)
27.03.2021 02:20 2,8 C 8,9 C 2,3 C 2,5 C 2,0 C 0,0 C 86 % 90 % 1016,8 hPa 0,0 l/m 0,0 km/h (0 Bft) S 180 0 min 0,7 C 2,0 C 0,0 km/h (0 Bft)
27.03.2021 02:25 2,7 C 8,9 C 2,3 C 2,4 C 1,9 C 0,0 C 86 % 90 % 1016,8 hPa 0,0 l/m 0,0 km/h (0 Bft) S 180 0 min 0,6 C 1,9 C 0,0 km/h (0 Bft)
27.03.2021 02:30 2,7 C 8,9 C 2,3 C 2,4 C 1,9 C 0,0 C 86 % 90 % 1016,6 hPa 0,0 l/m 0,0 km/h (0 Bft) S 180 0 min 0,6 C 1,9 C 0,0 km/h (0 Bft)
27.03.2021 02:35 2,7 C 8,9 C 2,4 C 2,5 C 2,0 C 0,0 C 86 % 90 % 1016,6 hPa 0,0 l/m 0,0 km/h (0 Bft) S 180 0 min 0,6 C 2,0 C 0,0 km/h (0 Bft)
27.03.2021 02:40 2,7 C 8,9 C 2,6 C 2,6 C 2,3 C 0,0 C 86 % 90 % 1016,6 hPa 0,0 l/m 0,0 km/h (0 Bft) S 180 0 min 0,6 C 2,3 C 0,0 km/h (0 Bft)
27.03.2021 02:45 2,7 C 8,9 C 2,7 C 2,6 C 2,4 C 0,0 C 86 % 90 % 1016,6 hPa 0,0 l/m 0,0 km/h (0 Bft) S 180 0 min 0,6 C 2,4 C 0,0 km/h (0 Bft)
27.03.2021 02:50 2,8 C 8,8 C 2,7 C 2,6 C 2,3 C 0,0 C 86 % 90 % 1016,4 hPa 0,0 l/m 0,0 km/h (0 Bft) S 180 0 min 0,7 C 2,3 C 0,0 km/h (0 Bft)
27.03.2021 02:55 2,8 C 8,8 C 2,7 C 2,6 C 2,2 C 0,0 C 86 % 90 % 1016,4 hPa 0,0 l/m 0,0 km/h (0 Bft) S 180 0 min 0,7 C 2,2 C 0,0 km/h (0 Bft)
27.03.2021 03:00 2,7 C 8,8 C 2,6 C 2,5 C 2,0 C 0,0 C 87 % 90 % 1016,4 hPa 0,0 l/m 0,0 km/h (0 Bft) S 180 0 min 0,8 C 2,0 C 0,0 km/h (0 Bft)
27.03.2021 03:05 2,7 C 8,7 C 2,5 C 2,5 C 2,0 C 0,0 C 87 % 90 % 1016,4 hPa 0,0 l/m 0,0 km/h (0 Bft) S 180 0 min 0,8 C 2,0 C 0,0 km/h (0 Bft)
27.03.2021 03:10 2,7 C 8,8 C 2,5 C 2,4 C 1,9 C 0,0 C 87 % 90 % 1016,3 hPa 0,0 l/m 0,0 km/h (0 Bft) S 180 0 min 0,8 C 1,9 C 0,0 km/h (0 Bft)
27.03.2021 03:15 2,6 C 8,8 C 2,5 C 2,4 C 1,9 C 0,0 C 87 % 90 % 1016,3 hPa 0,0 l/m 0,0 km/h (0 Bft) S 180 0 min 0,7 C 1,9 C 0,0 km/h (0 Bft)
27.03.2021 03:20 2,7 C 8,8 C 2,6 C 2,5 C 2,1 C 0,0 C 87 % 90 % 1016,3 hPa 0,0 l/m 0,0 km/h (0 Bft) S 180 0 min 0,8 C 2,1 C 0,0 km/h (0 Bft)
27.03.2021 03:25 2,7 C 8,8 C 2,7 C 2,5 C 2,1 C 0,0 C 87 % 90 % 1016,3 hPa 0,0 l/m 0,0 km/h (0 Bft) S 180 0 min 0,8 C 2,1 C 0,0 km/h (0 Bft)
27.03.2021 03:30 2,7 C 8,7 C 2,7 C 2,5 C 2,2 C 0,0 C 87 % 90 % 1016,4 hPa 0,0 l/m 0,0 km/h (0 Bft) S 180 0 min 0,8 C 2,2 C 0,0 km/h (0 Bft)
27.03.2021 03:35 2,7 C 8,7 C 2,7 C 2,5 C 2,2 C 0,0 C 87 % 90 % 1016,4 hPa 0,0 l/m 0,0 km/h (0 Bft) S 180 0 min 0,8 C 2,2 C 0,0 km/h (0 Bft)
27.03.2021 03:40 2,7 C 8,7 C 2,7 C 2,5 C 2,2 C 0,0 C 87 % 90 % 1016,4 hPa 0,0 l/m 0,0 km/h (0 Bft) S 180 0 min 0,8 C 2,2 C 0,0 km/h (0 Bft)
27.03.2021 03:45 2,7 C 8,7 C 2,7 C 2,5 C 2,2 C 0,0 C 87 % 90 % 1016,4 hPa 0,0 l/m 0,0 km/h (0 Bft) S 180 0 min 0,8 C 2,2 C 0,0 km/h (0 Bft)
27.03.2021 03:50 2,7 C 8,6 C 2,8 C 2,5 C 2,2 C 0,0 C 87 % 90 % 1016,4 hPa 0,0 l/m 0,0 km/h (0 Bft) S 180 0 min 0,8 C 2,2 C 0,0 km/h (0 Bft)
27.03.2021 03:55 2,8 C 8,6 C 2,7 C 2,7 C 2,5 C 0,0 C 87 % 90 % 1016,4 hPa 0,0 l/m 0,0 km/h (0 Bft) S 180 0 min 0,9 C 2,5 C 0,0 km/h (0 Bft)
27.03.2021 04:00 2,9 C 8,6 C 2,8 C 2,9 C 2,9 C 0,0 C 87 % 90 % 1016,4 hPa 0,0 l/m 0,0 km/h (0 Bft) S 180 0 min 1,0 C 2,9 C 0,0 km/h (0 Bft)
27.03.2021 04:05 3,1 C 8,6 C 2,9 C 3,3 C 3,3 C 0,2 C 87 % 90 % 1016,4 hPa 0,0 l/m 0,0 km/h (0 Bft) S 180 0 min 1,2 C 3,3 C 0,0 km/h (0 Bft)
27.03.2021 04:10 3,5 C 8,4 C 3,2 C 4,0 C 4,0 C 0,5 C 87 % 90 % 1016,5 hPa 0,0 l/m 0,0 km/h (0 Bft) S 180 0 min 1,5 C 4,0 C 0,0 km/h (0 Bft)
27.03.2021 04:15 3,6 C 8,4 C 3,4 C 4,5 C 4,5 C 0,9 C 87 % 90 % 1016,5 hPa 0,0 l/m 0,0 km/h (0 Bft) S 180 0 min 1,6 C 4,5 C 0,0 km/h (0 Bft)
27.03.2021 04:20 4,0 C 8,3 C 4,0 C 5,0 C 5,0 C 1,0 C 88 % 90 % 1016,5 hPa 0,0 l/m 0,0 km/h (0 Bft) S 180 0 min 2,2 C 5,0 C 0,0 km/h (0 Bft)
27.03.2021 04:25 4,1 C 8,2 C 4,3 C 5,3 C 5,3 C 1,2 C 88 % 90 % 1016,5 hPa 0,0 l/m 0,0 km/h (0 Bft) S 180 0 min 2,3 C 5,3 C 0,0 km/h (0 Bft)
27.03.2021 04:30 4,5 C 8,2 C 4,5 C 5,7 C 5,7 C 1,2 C 88 % 90 % 1016,4 hPa 0,0 l/m 0,0 km/h (0 Bft) S 180 0 min 2,7 C 5,7 C 0,0 km/h (0 Bft)
27.03.2021 04:35 4,7 C 8,2 C 4,6 C 5,7 C 5,7 C 1,0 C 88 % 89 % 1016,4 hPa 0,0 l/m 0,0 km/h (0 Bft) S 180 0 min 2,9 C 5,7 C 0,0 km/h (0 Bft)
27.03.2021 04:40 4,8 C 8,2 C 4,7 C 5,9 C 5,9 C 1,1 C 87 % 89 % 1016,4 hPa 0,0 l/m 0,0 km/h (0 Bft) S 180 0 min 2,8 C 5,9 C 0,0 km/h (0 Bft)
27.03.2021 04:45 5,0 C 8,2 C 4,8 C 5,9 C 5,9 C 0,9 C 87 % 88 % 1016,4 hPa 0,0 l/m 0,0 km/h (0 Bft) S 180 0 min 3,0 C 5,9 C 0,0 km/h (0 Bft)
27.03.2021 04:50 5,3 C 8,2 C 4,9 C 5,9 C 5,9 C 0,6 C 87 % 89 % 1016,3 hPa 0,0 l/m 0,0 km/h (0 Bft) S-SW 202 0 min 3,3 C 5,9 C 0,0 km/h (0 Bft)
27.03.2021 04:55 5,4 C 8,2 C 4,7 C 5,9 C 5,9 C 0,5 C 87 % 88 % 1016,3 hPa 0,0 l/m 0,0 km/h (0 Bft) S 180 0 min 3,4 C 5,9 C 0,0 km/h (0 Bft)
27.03.2021 05:00 5,7 C 8,1 C 4,7 C 5,8 C 5,8 C 0,1 C 87 % 88 % 1016,3 hPa 0,0 l/m 0,0 km/h (0 Bft) S-SW 202 0 min 3,7 C 5,8 C 0,0 km/h (0 Bft)
27.03.2021 05:05 5,6 C 8,1 C 4,6 C 5,8 C 5,8 C 0,2 C 87 % 88 % 1016,3 hPa 0,0 l/m 0,0 km/h (0 Bft) S 180 0 min 3,6 C 5,8 C 0,0 km/h (0 Bft)
27.03.2021 05:10 5,9 C 8,1 C 4,6 C 5,9 C 5,9 C 0,0 C 87 % 88 % 1016,1 hPa 0,0 l/m 0,0 km/h (0 Bft) S 180 0 min 3,9 C 5,9 C 0,0 km/h (0 Bft)
27.03.2021 05:15 6,0 C 8,1 C 4,6 C 6,0 C 5,9 C 0,0 C 86 % 88 % 1016,1 hPa 0,0 l/m 0,0 km/h (0 Bft) S 180 0 min 3,8 C 5,9 C 0,0 km/h (0 Bft)
27.03.2021 05:20 6,3 C 8,1 C 4,6 C 6,2 C 5,9 C 0,0 C 86 % 88 % 1016,1 hPa 0,0 l/m 0,0 km/h (0 Bft) S 180 0 min 4,1 C 5,9 C 0,0 km/h (0 Bft)
27.03.2021 05:25 6,3 C 8,1 C 4,5 C 6,1 C 5,8 C 0,0 C 86 % 87 % 1016,1 hPa 0,0 l/m 0,0 km/h (0 Bft) S 180 0 min 4,1 C 5,8 C 0,0 km/h (0 Bft)
27.03.2021 05:30 6,1 C 8,1 C 4,3 C 5,9 C 5,5 C 0,0 C 85 % 87 % 1016,6 hPa 0,0 l/m 0,0 km/h (0 Bft) S 180 0 min 3,8 C 5,5 C 0,0 km/h (0 Bft)
27.03.2021 05:35 6,0 C 8,1 C 4,3 C 5,7 C 5,2 C 0,0 C 84 % 87 % 1016,6 hPa 0,0 l/m 0,0 km/h (0 Bft) S 180 0 min 3,5 C 5,2 C 0,0 km/h (0 Bft)
27.03.2021 05:40 5,9 C 8,1 C 4,3 C 5,7 C 5,2 C 0,0 C 84 % 87 % 1016,6 hPa 0,0 l/m 0,0 km/h (0 Bft) S 180 0 min 3,4 C 5,2 C 0,0 km/h (0 Bft)
27.03.2021 05:45 5,9 C 8,1 C 4,2 C 5,7 C 5,2 C 0,0 C 84 % 87 % 1016,6 hPa 0,0 l/m 0,0 km/h (0 Bft) S 180 0 min 3,4 C 5,2 C 0,0 km/h (0 Bft)
27.03.2021 05:50 6,0 C 8,1 C 4,4 C 5,8 C 5,5 C 0,0 C 84 % 88 % 1016,3 hPa 0,0 l/m 0,5 km/h (0 Bft) S-SO 157 0 min 3,5 C 5,5 C 4,0 km/h (1 Bft)
27.03.2021 05:55 6,1 C 8,1 C 4,6 C 6,0 C 5,7 C 0,0 C 84 % 88 % 1016,3 hPa 0,0 l/m 0,5 km/h (0 Bft) S-SO 157 0 min 3,6 C 5,7 C 1,6 km/h (1 Bft)
27.03.2021 06:00 6,3 C 8,1 C 5,0 C 6,3 C 6,2 C 0,0 C 83 % 88 % 1016,3 hPa 0,0 l/m 0,6 km/h (0 Bft) S-SW 202 0 min 3,6 C 6,2 C 4,3 km/h (1 Bft)
27.03.2021 06:05 6,9 C 8,1 C 5,2 C 6,8 C 6,6 C 0,0 C 84 % 88 % 1016,3 hPa 0,0 l/m 1,1 km/h (1 Bft) S 180 0 min 4,4 C 6,6 C 4,0 km/h (1 Bft)
27.03.2021 06:10 7,3 C 8,1 C 5,7 C 7,3 C 7,3 C 0,0 C 83 % 87 % 1016,6 hPa 0,0 l/m 3,1 km/h (1 Bft) S-SO 157 0 min 4,6 C 7,3 C 6,8 km/h (2 Bft)
27.03.2021 06:15 7,6 C 8,1 C 5,8 C 7,7 C 7,7 C 0,1 C 81 % 87 % 1016,6 hPa 0,0 l/m 2,9 km/h (1 Bft) S-SW 202 0 min 4,6 C 7,7 C 0,0 km/h (0 Bft)
27.03.2021 06:20 7,9 C 8,1 C 6,1 C 7,9 C 7,9 C 0,0 C 80 % 86 % 1016,6 hPa 0,0 l/m 1,6 km/h (1 Bft) S 180 0 min 4,7 C 7,9 C 4,8 km/h (1 Bft)
27.03.2021 06:25 8,1 C 8,0 C 6,2 C 8,1 C 8,0 C 0,0 C 79 % 85 % 1016,6 hPa 0,0 l/m 1,6 km/h (1 Bft) S 180 0 min 4,7 C 8,0 C 5,8 km/h (2 Bft)
27.03.2021 06:30 8,4 C 8,0 C 6,4 C 8,4 C 8,3 C 0,0 C 78 % 85 % 1016,4 hPa 0,0 l/m 2,7 km/h (1 Bft) SO 135 0 min 4,8 C 8,3 C 7,6 km/h (2 Bft)
27.03.2021 06:35 8,7 C 7,9 C 6,7 C 8,7 C 8,6 C 0,0 C 77 % 84 % 1016,4 hPa 0,0 l/m 2,9 km/h (1 Bft) S-SO 157 0 min 4,9 C 8,6 C 6,0 km/h (2 Bft)
27.03.2021 06:40 8,8 C 7,9 C 7,0 C 8,8 C 8,8 C 0,0 C 76 % 84 % 1016,4 hPa 0,0 l/m 2,6 km/h (1 Bft) S 180 0 min 4,8 C 8,8 C 5,1 km/h (1 Bft)
27.03.2021 06:45 8,9 C 7,9 C 7,1 C 9,0 C 9,0 C 0,1 C 75 % 83 % 1016,4 hPa 0,0 l/m 2,1 km/h (1 Bft) S-SO 157 0 min 4,7 C 9,0 C 6,4 km/h (2 Bft)
27.03.2021 06:50 9,1 C 7,9 C 7,3 C 9,2 C 9,2 C 0,1 C 74 % 83 % 1016,6 hPa 0,0 l/m 3,2 km/h (1 Bft) S-SO 157 0 min 4,7 C 9,2 C 8,0 km/h (2 Bft)
27.03.2021 06:55 9,2 C 7,9 C 7,5 C 9,4 C 9,4 C 0,2 C 73 % 82 % 1016,6 hPa 0,0 l/m 3,9 km/h (1 Bft) S-SO 157 0 min 4,6 C 9,4 C 6,3 km/h (2 Bft)
27.03.2021 07:00 9,5 C 7,9 C 7,9 C 9,7 C 9,7 C 0,2 C 73 % 80 % 1016,6 hPa 0,0 l/m 4,3 km/h (1 Bft) S-SO 157 0 min 4,9 C 9,7 C 10,1 km/h (2 Bft)
27.03.2021 07:05 9,7 C 7,9 C 8,1 C 9,9 C 9,9 C 0,2 C 73 % 80 % 1016,6 hPa 0,0 l/m 4,5 km/h (1 Bft) S 180 0 min 5,1 C 9,9 C 9,3 km/h (2 Bft)
27.03.2021 07:10 9,7 C 7,9 C 8,1 C 10,0 C 10,0 C 0,3 C 72 % 79 % 1016,4 hPa 0,0 l/m 2,7 km/h (1 Bft) W-SW 247 0 min 4,9 C 10,0 C 10,9 km/h (2 Bft)
27.03.2021 07:15 9,6 C 7,9 C 8,2 C 9,8 C 9,8 C 0,2 C 72 % 79 % 1016,4 hPa 0,0 l/m 1,8 km/h (1 Bft) SO 135 0 min 4,8 C 9,8 C 7,4 km/h (2 Bft)
27.03.2021 07:20 9,7 C 7,9 C 8,6 C 10,0 C 10,0 C 0,3 C 72 % 78 % 1016,4 hPa 0,0 l/m 2,1 km/h (1 Bft) O-SO 112 0 min 4,9 C 10,0 C 4,2 km/h (1 Bft)
27.03.2021 07:25 9,9 C 7,9 C 8,8 C 10,1 C 10,1 C 0,2 C 72 % 77 % 1016,4 hPa 0,0 l/m 2,6 km/h (1 Bft) S-SO 157 0 min 5,1 C 10,1 C 4,3 km/h (1 Bft)
27.03.2021 07:30 10,1 C 7,9 C 9,2 C 10,3 C 10,3 C 0,2 C 72 % 76 % 1016,8 hPa 0,0 l/m 3,4 km/h (1 Bft) S-SO 157 0 min 5,3 C 10,3 C 15,1 km/h (3 Bft)
27.03.2021 07:35 10,3 C 7,9 C 9,3 C 10,5 C 10,5 C 0,2 C 72 % 76 % 1016,8 hPa 0,0 l/m 3,9 km/h (1 Bft) S-SW 202 0 min 5,5 C 10,5 C 3,4 km/h (1 Bft)
27.03.2021 07:40 10,4 C 8,0 C 9,6 C 10,7 C 10,7 C 0,3 C 71 % 74 % 1016,8 hPa 0,0 l/m 4,7 km/h (1 Bft) S-SW 202 0 min 5,4 C 10,7 C 9,2 km/h (2 Bft)
27.03.2021 07:45 10,5 C 8,0 C 9,5 C 10,4 C 10,1 C 0,0 C 71 % 75 % 1016,8 hPa 0,0 l/m 5,6 km/h (1 Bft) SW 225 0 min 5,5 C 10,1 C 15,6 km/h (3 Bft)
27.03.2021 07:50 10,4 C 8,0 C 9,4 C 10,1 C 8,7 C 0,0 C 72 % 77 % 1017,2 hPa 0,0 l/m 7,9 km/h (2 Bft) S-SW 202 0 min 5,6 C 7,5 C 32,3 km/h (5 Bft)
27.03.2021 07:55 10,2 C 8,0 C 9,2 C 9,8 C 8,4 C 0,0 C 72 % 78 % 1017,2 hPa 0,0 l/m 8,2 km/h (2 Bft) W-SW 247 0 min 5,4 C 7,1 C 8,2 km/h (2 Bft)
27.03.2021 08:00 10,0 C 8,2 C 8,8 C 9,3 C 8,0 C 0,0 C 74 % 80 % 1017,2 hPa 0,0 l/m 7,1 km/h (2 Bft) S-SO 157 0 min 5,6 C 6,9 C 7,2 km/h (2 Bft)
27.03.2021 08:05 9,9 C 8,2 C 8,6 C 9,1 C 7,4 C 0,0 C 75 % 82 % 1017,2 hPa 0,0 l/m 6,4 km/h (2 Bft) N 360 0 min 5,7 C 6,4 C 8,5 km/h (2 Bft)
27.03.2021 08:10 9,7 C 8,2 C 8,5 C 9,0 C 7,5 C 0,0 C 76 % 83 % 1017,2 hPa 0,0 l/m 5,3 km/h (1 Bft) O-SO 112 0 min 5,7 C 6,8 C 5,3 km/h (1 Bft)
27.03.2021 08:15 9,6 C 8,2 C 8,5 C 8,8 C 7,3 C 0,0 C 77 % 83 % 1017,2 hPa 0,0 l/m 5,6 km/h (1 Bft) SW 225 0 min 5,8 C 6,5 C 6,6 km/h (2 Bft)
27.03.2021 08:20 9,5 C 8,2 C 8,4 C 8,8 C 7,4 C 0,0 C 78 % 84 % 1017,2 hPa 0,0 l/m 4,8 km/h (1 Bft) O-NO 67 0 min 5,9 C 6,9 C 5,3 km/h (1 Bft)
27.03.2021 08:25 9,5 C 8,2 C 8,3 C 8,8 C 7,3 C 0,0 C 78 % 84 % 1017,2 hPa 0,0 l/m 4,7 km/h (1 Bft) W 270 0 min 5,9 C 6,8 C 2,9 km/h (1 Bft)
27.03.2021 08:30 9,2 C 8,3 C 8,1 C 8,7 C 7,7 C 0,0 C 78 % 85 % 1017,8 hPa 0,0 l/m 3,9 km/h (1 Bft) SW 225 0 min 5,6 C 7,7 C 5,3 km/h (1 Bft)
27.03.2021 08:35 9,2 C 8,2 C 8,2 C 8,7 C 7,7 C 0,0 C 78 % 86 % 1017,8 hPa 0,0 l/m 3,9 km/h (1 Bft) SW 225 0 min 5,6 C 7,7 C 7,2 km/h (2 Bft)
27.03.2021 08:40 9,3 C 8,2 C 8,3 C 8,8 C 7,7 C 0,0 C 78 % 86 % 1017,8 hPa 0,0 l/m 4,0 km/h (1 Bft) O-NO 67 0 min 5,7 C 7,7 C 0,0 km/h (0 Bft)
27.03.2021 08:45 9,2 C 8,2 C 8,5 C 8,8 C 7,9 C 0,0 C 78 % 87 % 1017,8 hPa 0,0 l/m 3,9 km/h (1 Bft) W-SW 247 0 min 5,6 C 7,9 C 9,5 km/h (2 Bft)
27.03.2021 08:50 9,3 C 8,2 C 8,4 C 9,0 C 8,4 C 0,0 C 78 % 87 % 1018,1 hPa 0,0 l/m 3,4 km/h (1 Bft) W 270 0 min 5,7 C 8,4 C 4,7 km/h (1 Bft)
27.03.2021 08:55 9,3 C 8,2 C 8,4 C 9,0 C 8,3 C 0,0 C 78 % 87 % 1018,1 hPa 0,0 l/m 4,7 km/h (1 Bft) SW 225 0 min 5,7 C 7,9 C 9,0 km/h (2 Bft)
27.03.2021 09:00 9,5 C 8,2 C 8,3 C 9,1 C 7,7 C 0,0 C 78 % 86 % 1018,1 hPa 0,0 l/m 8,5 km/h (2 Bft) SW 225 0 min 5,9 C 6,2 C 11,3 km/h (2 Bft)
27.03.2021 09:05 9,1 C 8,2 C 8,0 C 8,6 C 6,8 C 0,0 C 76 % 84 % 1018,1 hPa 0,0 l/m 11,7 km/h (2 Bft) SW 225 0 min 5,1 C 4,5 C 19,3 km/h (3 Bft)
27.03.2021 09:10 8,5 C 8,3 C 7,4 C 7,9 C 5,3 C 0,0 C 76 % 86 % 1019,7 hPa 0,0 l/m 13,5 km/h (3 Bft) S 180 0 min 4,5 C 2,4 C 10,0 km/h (2 Bft)
27.03.2021 09:15 8,0 C 8,3 C 7,0 C 7,2 C 4,3 C 0,0 C 77 % 87 % 1019,7 hPa 0,0 l/m 14,3 km/h (3 Bft) S-SW 202 0 min 4,2 C 1,0 C 13,2 km/h (3 Bft)
27.03.2021 09:20 7,4 C 8,3 C 6,4 C 6,5 C 3,5 C 0,0 C 78 % 87 % 1019,7 hPa 0,7 l/m 13,2 km/h (3 Bft) W-SW 247 0 min 3,8 C 0,2 C 14,3 km/h (3 Bft)
27.03.2021 09:25 7,1 C 8,3 C 6,3 C 6,2 C 3,4 C 0,0 C 79 % 87 % 1019,7 hPa 0,0 l/m 11,6 km/h (2 Bft) W 270 0 min 3,7 C 0,4 C 8,5 km/h (2 Bft)
27.03.2021 09:30 6,8 C 8,3 C 6,1 C 6,0 C 3,7 C 0,0 C 79 % 88 % 1020,4 hPa 0,0 l/m 9,3 km/h (2 Bft) N 360 0 min 3,4 C 1,3 C 13,7 km/h (3 Bft)
27.03.2021 09:35 6,7 C 8,3 C 6,1 C 5,9 C 3,9 C 0,0 C 80 % 88 % 1020,4 hPa 0,0 l/m 8,4 km/h (2 Bft) SW 225 0 min 3,5 C 1,7 C 16,1 km/h (3 Bft)
27.03.2021 09:40 6,6 C 8,4 C 6,0 C 5,9 C 4,1 C 0,0 C 81 % 89 % 1020,4 hPa 0,0 l/m 7,9 km/h (2 Bft) W-SW 247 0 min 3,6 C 2,1 C 7,9 km/h (2 Bft)
27.03.2021 09:45 6,5 C 8,3 C 5,9 C 5,8 C 4,3 C 0,0 C 82 % 89 % 1020,4 hPa 0,0 l/m 7,1 km/h (2 Bft) SW 225 0 min 3,7 C 2,6 C 9,5 km/h (2 Bft)
27.03.2021 09:50 6,4 C 8,3 C 6,1 C 5,8 C 4,6 C 0,0 C 82 % 90 % 1020,6 hPa 0,0 l/m 6,6 km/h (2 Bft) S-SW 202 0 min 3,6 C 3,1 C 6,4 km/h (2 Bft)
27.03.2021 09:55 6,4 C 8,3 C 6,2 C 5,9 C 4,8 C 0,0 C 82 % 90 % 1020,6 hPa 0,0 l/m 6,4 km/h (2 Bft) SW 225 0 min 3,6 C 3,4 C 9,0 km/h (2 Bft)
27.03.2021 10:00 6,5 C 8,3 C 6,5 C 6,2 C 5,6 C 0,0 C 83 % 90 % 1020,6 hPa 0,0 l/m 6,4 km/h (2 Bft) S-SW 202 0 min 3,8 C 4,3 C 8,2 km/h (2 Bft)
27.03.2021 10:05 6,7 C 8,2 C 6,7 C 6,5 C 6,0 C 0,0 C 83 % 89 % 1020,6 hPa 0,0 l/m 7,2 km/h (2 Bft) W-SW 247 0 min 4,0 C 4,5 C 8,7 km/h (2 Bft)
27.03.2021 10:10 6,8 C 8,2 C 7,2 C 7,0 C 6,9 C 0,2 C 83 % 89 % 1021,2 hPa 0,0 l/m 7,9 km/h (2 Bft) W-SW 247 0 min 4,1 C 5,4 C 16,9 km/h (3 Bft)
27.03.2021 10:15 6,9 C 8,2 C 7,4 C 7,5 C 7,0 C 0,6 C 83 % 88 % 1021,2 hPa 0,0 l/m 10,0 km/h (2 Bft) W-SW 247 0 min 4,2 C 5,0 C 14,6 km/h (3 Bft)
27.03.2021 10:20 7,3 C 8,2 C 7,4 C 7,7 C 7,2 C 0,4 C 83 % 88 % 1021,2 hPa 0,0 l/m 9,8 km/h (2 Bft) W-SW 247 0 min 4,6 C 5,3 C 17,4 km/h (3 Bft)
27.03.2021 10:25 7,3 C 8,2 C 7,5 C 7,9 C 7,5 C 0,6 C 81 % 87 % 1021,2 hPa 0,0 l/m 8,9 km/h (2 Bft) W-SW 247 0 min 4,3 C 5,9 C 13,7 km/h (3 Bft)
27.03.2021 10:30 7,5 C 8,1 C 7,8 C 8,0 C 7,3 C 0,5 C 80 % 86 % 1021,3 hPa 0,0 l/m 12,4 km/h (3 Bft) SW 225 0 min 4,3 C 5,0 C 17,9 km/h (3 Bft)
27.03.2021 10:35 7,6 C 8,1 C 8,1 C 8,1 C 7,6 C 0,5 C 79 % 85 % 1021,3 hPa 0,0 l/m 12,1 km/h (2 Bft) SW 225 0 min 4,2 C 5,4 C 11,3 km/h (2 Bft)
27.03.2021 10:40 7,6 C 8,1 C 7,9 C 7,6 C 7,6 C 0,0 C 76 % 83 % 1021,3 hPa 0,0 l/m 12,6 km/h (3 Bft) W 270 0 min 3,6 C 5,3 C 20,0 km/h (4 Bft)
27.03.2021 10:45 7,9 C 8,1 C 7,7 C 8,1 C 7,3 C 0,2 C 75 % 83 % 1021,3 hPa 0,0 l/m 12,9 km/h (3 Bft) SW 225 0 min 3,7 C 4,9 C 12,9 km/h (3 Bft)
27.03.2021 10:50 8,1 C 8,0 C 7,9 C 8,3 C 8,1 C 0,2 C 74 % 83 % 1021,3 hPa 0,0 l/m 10,0 km/h (2 Bft) SW 225 0 min 3,8 C 6,4 C 13,5 km/h (3 Bft)
27.03.2021 10:55 8,3 C 7,9 C 8,1 C 8,8 C 8,4 C 0,5 C 72 % 82 % 1021,3 hPa 0,0 l/m 9,7 km/h (2 Bft) SW 225 0 min 3,6 C 6,8 C 13,0 km/h (3 Bft)
27.03.2021 11:00 8,5 C 7,9 C 8,9 C 9,1 C 8,7 C 0,6 C 71 % 81 % 1021,3 hPa 0,0 l/m 11,9 km/h (2 Bft) W 270 0 min 3,5 C 6,8 C 10,5 km/h (2 Bft)
27.03.2021 11:05 8,6 C 7,9 C 10,7 C 9,4 C 8,9 C 0,8 C 71 % 79 % 1021,3 hPa 0,0 l/m 11,9 km/h (2 Bft) SW 225 0 min 3,6 C 7,0 C 16,4 km/h (3 Bft)
27.03.2021 11:10 9,0 C 7,9 C 10,8 C 10,0 C 9,9 C 1,0 C 69 % 75 % 1021,6 hPa 0,0 l/m 10,3 km/h (2 Bft) S-SW 202 0 min 3,6 C 8,5 C 13,0 km/h (3 Bft)
27.03.2021 11:15 9,0 C 7,9 C 11,1 C 10,4 C 10,0 C 1,4 C 69 % 76 % 1021,6 hPa 0,0 l/m 10,5 km/h (2 Bft) SW 225 0 min 3,6 C 8,5 C 9,3 km/h (2 Bft)
27.03.2021 11:20 9,1 C 7,9 C 11,2 C 10,8 C 10,7 C 1,7 C 66 % 71 % 1021,6 hPa 0,0 l/m 10,9 km/h (2 Bft) O-NO 67 0 min 3,1 C 10,7 C 13,8 km/h (3 Bft)
27.03.2021 11:25 9,1 C 7,9 C 10,7 C 10,9 C 10,3 C 1,8 C 64 % 69 % 1021,6 hPa 0,0 l/m 12,4 km/h (3 Bft) S-SW 202 0 min 2,7 C 10,3 C 16,4 km/h (3 Bft)
27.03.2021 11:30 9,0 C 7,9 C 10,3 C 10,0 C 9,0 C 1,0 C 63 % 70 % 1021,8 hPa 0,0 l/m 13,8 km/h (3 Bft) S-SW 202 0 min 2,3 C 6,8 C 12,4 km/h (3 Bft)
27.03.2021 11:35 9,0 C 7,9 C 11,3 C 10,0 C 9,8 C 1,0 C 64 % 71 % 1021,8 hPa 0,0 l/m 12,4 km/h (3 Bft) SW 225 0 min 2,6 C 8,0 C 12,7 km/h (3 Bft)
27.03.2021 11:40 9,4 C 7,9 C 13,2 C 11,1 C 11,1 C 1,7 C 62 % 60 % 1021,8 hPa 0,0 l/m 11,7 km/h (2 Bft) S 180 0 min 2,5 C 11,1 C 18,7 km/h (3 Bft)
27.03.2021 11:45 9,5 C 7,9 C 13,3 C 11,4 C 10,9 C 1,9 C 60 % 56 % 1021,8 hPa 0,0 l/m 14,2 km/h (3 Bft) SW 225 0 min 2,1 C 10,9 C 20,3 km/h (4 Bft)
27.03.2021 11:50 9,6 C 7,9 C 13,6 C 11,7 C 11,3 C 2,1 C 60 % 55 % 1021,6 hPa 0,0 l/m 16,6 km/h (3 Bft) SW 225 0 min 2,2 C 11,3 C 20,9 km/h (4 Bft)
27.03.2021 11:55 9,9 C 7,9 C 14,3 C 12,3 C 12,1 C 2,4 C 60 % 53 % 1021,6 hPa 0,0 l/m 14,8 km/h (3 Bft) S-SW 202 0 min 2,5 C 12,1 C 23,8 km/h (4 Bft)
27.03.2021 12:00 10,0 C 7,9 C 14,7 C 13,2 C 13,3 C 3,2 C 58 % 51 % 1021,6 hPa 0,0 l/m 13,4 km/h (3 Bft) S-SW 202 0 min 2,1 C 13,3 C 13,7 km/h (3 Bft)
27.03.2021 12:05 10,3 C 7,9 C 13,9 C 13,4 C 12,9 C 3,1 C 58 % 51 % 1021,6 hPa 0,0 l/m 14,2 km/h (3 Bft) S-SW 202 0 min 2,4 C 12,9 C 16,7 km/h (3 Bft)
27.03.2021 12:10 10,3 C 7,9 C 13,9 C 12,9 C 12,9 C 2,6 C 58 % 51 % 1021,6 hPa 0,0 l/m 14,2 km/h (3 Bft) S-SW 202 0 min 2,4 C 12,9 C 16,7 km/h (3 Bft)
27.03.2021 12:15 10,3 C 7,9 C 13,9 C 12,3 C 11,4 C 2,0 C 58 % 51 % 1021,6 hPa 0,0 l/m 13,8 km/h (3 Bft) SW 225 0 min 2,4 C 11,4 C 17,7 km/h (3 Bft)
27.03.2021 12:20 9,9 C 7,9 C 11,2 C 10,9 C 9,9 C 1,0 C 57 % 54 % 1021,6 hPa 0,0 l/m 13,8 km/h (3 Bft) SW 225 0 min 1,8 C 7,9 C 19,0 km/h (3 Bft)
27.03.2021 12:25 9,9 C 7,9 C 11,1 C 10,1 C 9,4 C 0,2 C 57 % 55 % 1021,6 hPa 0,0 l/m 14,0 km/h (3 Bft) S 180 0 min 1,8 C 7,3 C 22,2 km/h (4 Bft)
27.03.2021 12:30 9,8 C 7,9 C 10,9 C 9,7 C 9,4 C 0,0 C 57 % 55 % 1022,3 hPa 0,0 l/m 14,0 km/h (3 Bft) SW 225 0 min 1,7 C 7,3 C 11,6 km/h (2 Bft)
27.03.2021 12:35 9,8 C 7,9 C 10,9 C 10,1 C 9,7 C 0,3 C 57 % 54 % 1022,3 hPa 0,0 l/m 12,4 km/h (3 Bft) W-SW 247 0 min 1,7 C 7,9 C 13,0 km/h (3 Bft)
27.03.2021 12:40 9,9 C 7,9 C 11,6 C 10,6 C 10,3 C 0,7 C 56 % 55 % 1022,3 hPa 0,0 l/m 12,9 km/h (3 Bft) S-SW 202 0 min 1,5 C 10,3 C 18,3 km/h (3 Bft)
27.03.2021 12:45 10,3 C 7,9 C 12,9 C 11,7 C 11,7 C 1,4 C 57 % 51 % 1022,3 hPa 0,0 l/m 15,3 km/h (3 Bft) SW 225 0 min 2,2 C 11,7 C 20,4 km/h (4 Bft)
27.03.2021 12:50 10,3 C 7,9 C 12,2 C 11,7 C 11,7 C 1,4 C 55 % 49 % 1022,4 hPa 0,0 l/m 15,8 km/h (3 Bft) S-SW 202 0 min 1,7 C 11,7 C 34,0 km/h (5 Bft)
27.03.2021 12:55 10,0 C 7,9 C 11,2 C 11,2 C 10,1 C 1,2 C 55 % 53 % 1022,4 hPa 0,0 l/m 15,9 km/h (3 Bft) S 180 0 min 1,4 C 10,1 C 17,2 km/h (3 Bft)
27.03.2021 13:00 9,7 C 7,9 C 10,4 C 10,1 C 9,2 C 0,4 C 57 % 56 % 1022,4 hPa 0,0 l/m 13,4 km/h (3 Bft) S 180 0 min 1,6 C 7,1 C 10,6 km/h (2 Bft)
27.03.2021 13:05 9,7 C 7,9 C 10,3 C 9,7 C 9,3 C 0,0 C 57 % 55 % 1022,4 hPa 0,0 l/m 11,4 km/h (2 Bft) SW 225 0 min 1,6 C 7,6 C 18,2 km/h (3 Bft)
27.03.2021 13:10 9,8 C 7,9 C 10,4 C 10,0 C 9,7 C 0,2 C 56 % 55 % 1022,3 hPa 0,0 l/m 10,9 km/h (2 Bft) S-SW 202 0 min 1,4 C 8,1 C 10,9 km/h (2 Bft)
27.03.2021 13:15 9,9 C 7,9 C 10,5 C 10,2 C 9,8 C 0,3 C 57 % 55 % 1022,3 hPa 0,0 l/m 12,1 km/h (2 Bft) W-SW 247 0 min 1,8 C 8,1 C 14,3 km/h (3 Bft)
27.03.2021 13:20 9,9 C 7,9 C 10,4 C 10,1 C 9,4 C 0,2 C 56 % 55 % 1022,3 hPa 0,0 l/m 13,8 km/h (3 Bft) S-SW 202 0 min 1,5 C 7,3 C 15,0 km/h (3 Bft)
27.03.2021 13:25 10,0 C 7,9 C 10,8 C 10,6 C 10,6 C 0,6 C 57 % 56 % 1022,3 hPa 0,0 l/m 12,1 km/h (2 Bft) W-SW 247 0 min 1,9 C 10,6 C 5,8 km/h (2 Bft)
27.03.2021 13:30 10,1 C 7,9 C 10,6 C 11,1 C 10,8 C 1,0 C 55 % 54 % 1022,8 hPa 0,0 l/m 10,3 km/h (2 Bft) S 180 0 min 1,5 C 10,8 C 11,3 km/h (2 Bft)
27.03.2021 13:35 10,1 C 7,9 C 10,5 C 10,9 C 10,3 C 0,8 C 54 % 54 % 1022,8 hPa 0,0 l/m 10,6 km/h (2 Bft) SW 225 0 min 1,2 C 10,3 C 8,5 km/h (2 Bft)
27.03.2021 13:40 10,3 C 7,9 C 11,0 C 11,6 C 11,7 C 1,3 C 54 % 53 % 1022,8 hPa 0,0 l/m 12,1 km/h (2 Bft) S-SW 202 0 min 1,4 C 11,7 C 23,7 km/h (4 Bft)
27.03.2021 13:45 10,3 C 7,9 C 10,7 C 11,6 C 10,9 C 1,3 C 52 % 51 % 1022,8 hPa 0,0 l/m 13,0 km/h (3 Bft) SW 225 0 min 0,9 C 10,9 C 34,0 km/h (5 Bft)
27.03.2021 13:50 10,3 C 7,9 C 10,8 C 11,3 C 10,6 C 1,0 C 52 % 51 % 1023,1 hPa 0,0 l/m 15,9 km/h (3 Bft) S 180 0 min 0,9 C 10,6 C 20,9 km/h (4 Bft)
27.03.2021 13:55 10,1 C 7,9 C 10,5 C 10,7 C 9,8 C 0,6 C 51 % 50 % 1023,1 hPa 0,0 l/m 17,5 km/h (3 Bft) SW 225 0 min 0,4 C 7,4 C 16,4 km/h (3 Bft)
27.03.2021 14:00 9,9 C 7,9 C 10,0 C 9,9 C 9,1 C 0,0 C 52 % 52 % 1023,1 hPa 0,0 l/m 13,8 km/h (3 Bft) SW 225 0 min 0,5 C 7,0 C 16,3 km/h (3 Bft)
27.03.2021 14:05 9,2 C 7,9 C 9,3 C 9,1 C 7,8 C 0,0 C 55 % 58 % 1023,1 hPa 0,0 l/m 15,6 km/h (3 Bft) S 180 0 min 0,6 C 5,1 C 40,4 km/h (6 Bft)
27.03.2021 14:10 7,2 C 8,1 C 6,9 C 6,7 C 3,1 C 0,0 C 64 % 68 % 1023,9 hPa 0,0 l/m 20,3 km/h (4 Bft) NW 315 0 min 0,9 C -1,4 C 40,4 km/h (6 Bft)
27.03.2021 14:15 6,6 C 8,1 C 6,4 C 5,5 C 1,7 C 0,0 C 69 % 73 % 1023,9 hPa 0,0 l/m 20,3 km/h (4 Bft) SW 225 0 min 1,3 C -3,1 C 26,1 km/h (4 Bft)
27.03.2021 14:20 6,1 C 8,1 C 6,1 C 5,0 C 1,4 C 0,0 C 72 % 77 % 1023,9 hPa 0,0 l/m 18,0 km/h (3 Bft) S-SO 157 0 min 1,4 C -3,2 C 26,4 km/h (4 Bft)
27.03.2021 14:25 5,9 C 8,1 C 6,2 C 4,9 C 1,7 C 0,0 C 73 % 78 % 1023,9 hPa 0,0 l/m 17,1 km/h (3 Bft) SW 225 0 min 1,4 C -2,7 C 21,4 km/h (4 Bft)
27.03.2021 14:30 5,8 C 8,0 C 6,4 C 5,1 C 2,9 C 0,0 C 74 % 79 % 1024,8 hPa 0,0 l/m 16,4 km/h (3 Bft) SW 225 0 min 1,5 C -1,1 C 13,7 km/h (3 Bft)
27.03.2021 14:35 5,7 C 8,0 C 6,3 C 5,3 C 3,7 C 0,0 C 74 % 78 % 1024,8 hPa 0,0 l/m 16,3 km/h (3 Bft) S-SW 202 0 min 1,4 C -0,1 C 23,7 km/h (4 Bft)
27.03.2021 14:40 5,6 C 8,0 C 6,0 C 5,4 C 4,1 C 0,0 C 74 % 78 % 1024,8 hPa 0,0 l/m 14,6 km/h (3 Bft) S 180 0 min 1,3 C 0,7 C 18,0 km/h (3 Bft)
27.03.2021 14:45 5,5 C 8,0 C 5,8 C 5,2 C 3,7 C 0,0 C 74 % 80 % 1024,8 hPa 0,0 l/m 13,2 km/h (3 Bft) W-SW 247 0 min 1,2 C 0,5 C 11,7 km/h (2 Bft)
27.03.2021 14:50 5,2 C 7,9 C 5,5 C 4,9 C 3,0 C 0,0 C 74 % 79 % 1024,6 hPa 0,0 l/m 13,2 km/h (3 Bft) S 180 0 min 1,0 C -0,4 C 9,3 km/h (2 Bft)
27.03.2021 14:55 5,2 C 7,9 C 5,5 C 4,8 C 2,9 C 0,0 C 73 % 79 % 1024,6 hPa 0,0 l/m 13,4 km/h (3 Bft) SW 225 0 min 0,8 C -0,6 C 15,8 km/h (3 Bft)
27.03.2021 15:00 5,1 C 7,9 C 5,2 C 4,6 C 2,6 C 0,0 C 72 % 78 % 1024,6 hPa 0,0 l/m 15,1 km/h (3 Bft) SW 225 0 min 0,5 C -1,2 C 18,8 km/h (3 Bft)
27.03.2021 15:05 5,1 C 7,9 C 5,1 C 4,6 C 2,5 C 0,0 C 72 % 79 % 1024,6 hPa 0,0 l/m 15,1 km/h (3 Bft) S 180 0 min 0,5 C -1,4 C 20,6 km/h (4 Bft)
27.03.2021 15:10 5,1 C 7,9 C 5,0 C 4,6 C 2,9 C 0,0 C 71 % 78 % 1025,1 hPa 0,0 l/m 11,9 km/h (2 Bft) S 180 0 min 0,3 C -0,3 C 9,7 km/h (2 Bft)
27.03.2021 15:15 5,0 C 7,9 C 5,0 C 4,6 C 3,2 C 0,0 C 70 % 79 % 1025,1 hPa 0,0 l/m 10,1 km/h (2 Bft) S-SW 202 0 min -0,0 C 0,5 C 8,5 km/h (2 Bft)
27.03.2021 15:20 5,1 C 7,8 C 5,0 C 4,8 C 3,6 C 0,0 C 70 % 79 % 1025,1 hPa 0,0 l/m 8,5 km/h (2 Bft) W 270 0 min 0,1 C 1,4 C 11,4 km/h (2 Bft)
27.03.2021 15:25 5,0 C 7,8 C 5,1 C 4,8 C 4,3 C 0,0 C 70 % 79 % 1025,1 hPa 0,0 l/m 6,6 km/h (2 Bft) S-SO 157 0 min -0,0 C 2,7 C 5,3 km/h (1 Bft)
27.03.2021 15:30 5,1 C 7,8 C 5,1 C 5,0 C 4,8 C 0,0 C 70 % 80 % 1025,1 hPa 0,0 l/m 5,1 km/h (1 Bft) O-SO 112 0 min 0,1 C 3,8 C 5,6 km/h (1 Bft)
27.03.2021 15:35 5,1 C 7,8 C 5,1 C 5,0 C 4,8 C 0,0 C 70 % 79 % 1025,1 hPa 0,0 l/m 5,5 km/h (1 Bft) NW 315 0 min 0,1 C 3,7 C 5,3 km/h (1 Bft)
27.03.2021 15:40 5,2 C 7,8 C 5,4 C 5,3 C 5,3 C 0,1 C 70 % 80 % 1025,1 hPa 0,0 l/m 5,5 km/h (1 Bft) W 270 0 min 0,2 C 4,2 C 10,0 km/h (2 Bft)
27.03.2021 15:45 5,3 C 7,8 C 5,6 C 6,4 C 6,4 C 1,1 C 71 % 79 % 1025,1 hPa 0,0 l/m 5,1 km/h (1 Bft) N-NO 22 0 min 0,5 C 5,6 C 6,1 km/h (2 Bft)
27.03.2021 15:50 5,6 C 7,8 C 5,9 C 7,5 C 7,5 C 1,9 C 71 % 80 % 1025,2 hPa 0,0 l/m 4,0 km/h (1 Bft) S 180 0 min 0,8 C 7,5 C 3,7 km/h (1 Bft)
27.03.2021 15:55 5,7 C 7,8 C 6,1 C 8,7 C 8,7 C 3,0 C 72 % 81 % 1025,2 hPa 0,0 l/m 3,7 km/h (1 Bft) S 180 0 min 1,1 C 8,7 C 11,6 km/h (2 Bft)
27.03.2021 16:00 6,1 C 7,8 C 6,4 C 8,7 C 8,7 C 2,6 C 71 % 79 % 1025,2 hPa 0,0 l/m 6,3 km/h (2 Bft) S-SO 157 0 min 1,2 C 7,9 C 13,4 km/h (3 Bft)
27.03.2021 16:05 6,3 C 7,8 C 6,6 C 8,8 C 8,3 C 2,5 C 70 % 79 % 1025,2 hPa 0,0 l/m 7,7 km/h (2 Bft) O-SO 112 0 min 1,2 C 7,1 C 6,4 km/h (2 Bft)
27.03.2021 16:10 6,5 C 7,8 C 6,7 C 9,4 C 9,4 C 2,9 C 70 % 79 % 1025,1 hPa 0,0 l/m 6,0 km/h (2 Bft) SW 225 0 min 1,4 C 8,8 C 14,0 km/h (3 Bft)
27.03.2021 16:15 6,7 C 7,8 C 6,6 C 9,1 C 9,1 C 2,4 C 69 % 77 % 1025,1 hPa 0,0 l/m 7,1 km/h (2 Bft) S-SW 202 0 min 1,4 C 8,2 C 13,7 km/h (3 Bft)
27.03.2021 16:20 6,7 C 7,8 C 6,8 C 8,6 C 7,6 C 1,9 C 69 % 79 % 1025,1 hPa 0,0 l/m 10,6 km/h (2 Bft) S 180 0 min 1,4 C 5,7 C 13,0 km/h (3 Bft)
27.03.2021 16:25 6,8 C 7,8 C 6,9 C 8,2 C 7,7 C 1,4 C 69 % 79 % 1025,1 hPa 0,0 l/m 10,5 km/h (2 Bft) SW 225 0 min 1,5 C 5,8 C 14,8 km/h (3 Bft)
27.03.2021 16:30 6,6 C 7,8 C 6,8 C 7,7 C 6,8 C 1,1 C 68 % 78 % 1025,5 hPa 0,0 l/m 11,1 km/h (2 Bft) S 180 0 min 1,1 C 4,6 C 8,9 km/h (2 Bft)
27.03.2021 16:35 6,7 C 7,8 C 6,7 C 7,1 C 6,2 C 0,4 C 68 % 76 % 1025,5 hPa 0,0 l/m 11,9 km/h (2 Bft) S 180 0 min 1,2 C 3,7 C 19,8 km/h (3 Bft)
27.03.2021 16:40 6,7 C 7,7 C 6,6 C 6,7 C 5,8 C 0,0 C 67 % 75 % 1025,5 hPa 0,0 l/m 10,3 km/h (2 Bft) S-SW 202 0 min 1,0 C 3,6 C 10,8 km/h (2 Bft)
27.03.2021 16:45 6,7 C 7,7 C 6,7 C 6,6 C 5,7 C 0,0 C 68 % 75 % 1025,5 hPa 0,0 l/m 10,0 km/h (2 Bft) S-SO 157 0 min 1,2 C 3,5 C 11,4 km/h (2 Bft)
27.03.2021 16:50 6,7 C 7,7 C 6,6 C 6,5 C 5,6 C 0,0 C 67 % 74 % 1025,4 hPa 0,0 l/m 9,7 km/h (2 Bft) SW 225 0 min 1,0 C 3,4 C 11,7 km/h (2 Bft)
27.03.2021 16:55 6,7 C 7,7 C 6,5 C 6,5 C 5,3 C 0,0 C 67 % 74 % 1025,4 hPa 0,0 l/m 10,3 km/h (2 Bft) W-SW 247 0 min 1,0 C 3,0 C 11,3 km/h (2 Bft)
27.03.2021 17:00 5,6 C 8,0 C 5,3 C 5,4 C 4,0 C 0,0 C 68 % 75 % 1025,4 hPa 0,0 l/m 10,0 km/h (2 Bft) N-NO 22 0 min 0,2 C 1,5 C 9,3 km/h (2 Bft)
27.03.2021 17:05 4,5 C 8,1 C 4,3 C 4,2 C 2,3 C 0,0 C 70 % 78 % 1025,4 hPa 0,0 l/m 8,5 km/h (2 Bft) SW 225 0 min -0,5 C -0,2 C 11,3 km/h (2 Bft)
27.03.2021 17:10 3,8 C 8,1 C 3,9 C 3,1 C 1,8 C 0,0 C 74 % 82 % 1026,5 hPa 0,0 l/m 5,3 km/h (1 Bft) SW 225 0 min -0,4 C 0,3 C 7,4 km/h (2 Bft)
27.03.2021 17:15 3,6 C 8,2 C 3,7 C 2,9 C 1,5 C 0,0 C 76 % 83 % 1026,5 hPa 0,0 l/m 5,1 km/h (1 Bft) W-SW 247 0 min -0,2 C 0,1 C 6,9 km/h (2 Bft)
27.03.2021 17:20 3,5 C 8,1 C 3,6 C 2,6 C 0,8 C 0,0 C 78 % 84 % 1026,5 hPa 0,7 l/m 6,3 km/h (2 Bft) W-SW 247 0 min 0,0 C -1,2 C 8,2 km/h (2 Bft)
27.03.2021 17:25 3,5 C 8,1 C 3,7 C 2,6 C 0,7 C 0,0 C 79 % 85 % 1026,5 hPa 0,0 l/m 6,6 km/h (2 Bft) W-SW 247 0 min 0,2 C -1,4 C 5,3 km/h (1 Bft)
27.03.2021 17:30 3,5 C 8,1 C 3,6 C 2,7 C 1,0 C 0,0 C 81 % 85 % 1026,6 hPa 0,0 l/m 6,3 km/h (2 Bft) W 270 0 min 0,6 C -1,0 C 6,8 km/h (2 Bft)
27.03.2021 17:35 3,4 C 8,1 C 3,5 C 2,7 C 1,4 C 0,0 C 81 % 86 % 1026,6 hPa 0,0 l/m 5,3 km/h (1 Bft) N 360 0 min 0,5 C -0,1 C 7,4 km/h (2 Bft)
27.03.2021 17:40 3,4 C 8,0 C 3,6 C 3,0 C 2,3 C 0,0 C 82 % 86 % 1026,6 hPa 0,0 l/m 3,7 km/h (1 Bft) S 180 0 min 0,6 C 2,3 C 2,3 km/h (1 Bft)
27.03.2021 17:45 3,5 C 8,0 C 3,8 C 3,4 C 3,2 C 0,0 C 82 % 86 % 1026,6 hPa 0,0 l/m 2,6 km/h (1 Bft) W-SW 247 0 min 0,7 C 3,2 C 1,9 km/h (1 Bft)
27.03.2021 17:50 3,7 C 7,9 C 4,1 C 3,8 C 3,8 C 0,1 C 82 % 86 % 1026,3 hPa 0,0 l/m 1,9 km/h (1 Bft) S 180 0 min 0,9 C 3,8 C 0,0 km/h (0 Bft)
27.03.2021 17:55 3,7 C 8,0 C 4,1 C 4,0 C 4,0 C 0,3 C 82 % 86 % 1026,3 hPa 0,0 l/m 2,1 km/h (1 Bft) SW 225 0 min 0,9 C 4,0 C 0,0 km/h (0 Bft)
27.03.2021 18:00 3,7 C 7,8 C 3,9 C 4,0 C 4,0 C 0,3 C 82 % 86 % 1026,3 hPa 0,0 l/m 2,3 km/h (1 Bft) S 180 0 min 0,9 C 4,0 C 6,1 km/h (2 Bft)
27.03.2021 18:05 3,6 C 7,8 C 3,7 C 3,5 C 3,3 C 0,0 C 82 % 86 % 1026,3 hPa 0,0 l/m 3,7 km/h (1 Bft) SW 225 0 min 0,8 C 3,3 C 8,0 km/h (2 Bft)
27.03.2021 18:10 3,6 C 7,8 C 3,5 C 3,4 C 2,9 C 0,0 C 82 % 86 % 1026,6 hPa 0,0 l/m 3,7 km/h (1 Bft) S-SO 157 0 min 0,8 C 2,9 C 0,0 km/h (0 Bft)
27.03.2021 18:15 3,5 C 7,8 C 3,3 C 3,3 C 2,8 C 0,0 C 82 % 86 % 1026,6 hPa 0,0 l/m 3,1 km/h (1 Bft) S-SW 202 0 min 0,7 C 2,8 C 4,3 km/h (1 Bft)
27.03.2021 18:20 3,5 C 7,8 C 3,2 C 3,3 C 2,9 C 0,0 C 82 % 87 % 1026,6 hPa 0,0 l/m 1,9 km/h (1 Bft) NO 45 0 min 0,7 C 2,9 C 0,0 km/h (0 Bft)
27.03.2021 18:25 3,4 C 7,8 C 3,2 C 3,2 C 2,7 C 0,0 C 82 % 87 % 1026,6 hPa 0,0 l/m 1,1 km/h (1 Bft) SO 135 0 min 0,6 C 2,7 C 0,0 km/h (0 Bft)
27.03.2021 18:30 3,5 C 7,8 C 3,1 C 3,2 C 2,6 C 0,0 C 82 % 87 % 1026,8 hPa 0,0 l/m 0,2 km/h (0 Bft) W-SW 247 0 min 0,7 C 2,6 C 1,8 km/h (1 Bft)
27.03.2021 18:35 3,3 C 7,8 C 3,0 C 3,0 C 2,4 C 0,0 C 82 % 87 % 1026,8 hPa 0,0 l/m 0,2 km/h (0 Bft) W-SW 247 0 min 0,5 C 2,4 C 0,0 km/h (0 Bft)
27.03.2021 18:40 3,3 C 7,8 C 2,9 C 3,0 C 2,3 C 0,0 C 83 % 87 % 1026,8 hPa 0,0 l/m 0,2 km/h (0 Bft) W-SW 247 0 min 0,7 C 2,3 C 0,0 km/h (0 Bft)
27.03.2021 18:45 3,2 C 7,7 C 2,9 C 2,9 C 2,2 C 0,0 C 83 % 87 % 1026,8 hPa 0,0 l/m 0,0 km/h (0 Bft) W 270 0 min 0,6 C 2,2 C 3,2 km/h (1 Bft)
27.03.2021 18:50 3,3 C 7,7 C 2,9 C 2,9 C 2,2 C 0,0 C 83 % 87 % 1027,1 hPa 0,0 l/m 0,2 km/h (0 Bft) W 270 0 min 0,7 C 2,2 C 2,6 km/h (1 Bft)
27.03.2021 18:55 3,3 C 7,7 C 2,9 C 2,9 C 2,2 C 0,0 C 83 % 87 % 1027,1 hPa 0,0 l/m 0,6 km/h (0 Bft) SW 225 0 min 0,7 C 2,2 C 1,9 km/h (1 Bft)
27.03.2021 19:00 3,3 C 7,7 C 2,9 C 3,0 C 2,4 C 0,0 C 83 % 87 % 1027,1 hPa 0,0 l/m 1,3 km/h (1 Bft) W-NW 292 0 min 0,7 C 2,4 C 0,0 km/h (0 Bft)
27.03.2021 19:05 3,5 C 7,7 C 3,0 C 3,2 C 2,5 C 0,0 C 83 % 87 % 1027,1 hPa 0,0 l/m 1,6 km/h (1 Bft) N 360 0 min 0,9 C 2,5 C 0,0 km/h (0 Bft)
27.03.2021 19:10 3,5 C 7,6 C 3,1 C 3,2 C 2,7 C 0,0 C 83 % 87 % 1027,2 hPa 0,0 l/m 1,8 km/h (1 Bft) W-SW 247 0 min 0,9 C 2,7 C 4,5 km/h (1 Bft)
27.03.2021 19:15 3,6 C 7,6 C 3,1 C 3,4 C 2,9 C 0,0 C 83 % 87 % 1027,2 hPa 0,0 l/m 1,9 km/h (1 Bft) SW 225 0 min 1,0 C 2,9 C 5,5 km/h (1 Bft)
27.03.2021 19:20 3,7 C 7,6 C 3,2 C 3,5 C 3,0 C 0,0 C 83 % 87 % 1027,2 hPa 0,0 l/m 2,1 km/h (1 Bft) S 180 0 min 1,1 C 3,0 C 3,7 km/h (1 Bft)
27.03.2021 19:25 3,7 C 7,6 C 3,3 C 3,5 C 3,1 C 0,0 C 83 % 87 % 1027,2 hPa 0,0 l/m 1,4 km/h (1 Bft) S 180 0 min 1,1 C 3,1 C 4,3 km/h (1 Bft)
27.03.2021 19:30 3,9 C 7,6 C 3,3 C 3,7 C 3,3 C 0,0 C 83 % 86 % 1027,4 hPa 0,0 l/m 1,6 km/h (1 Bft) S-SO 157 0 min 1,3 C 3,3 C 3,7 km/h (1 Bft)
27.03.2021 19:35 3,9 C 7,6 C 3,3 C 3,7 C 3,4 C 0,0 C 83 % 86 % 1027,4 hPa 0,0 l/m 1,6 km/h (1 Bft) SW 225 0 min 1,3 C 3,4 C 5,0 km/h (1 Bft)
27.03.2021 19:40 3,9 C 7,6 C 3,3 C 3,8 C 3,5 C 0,0 C 83 % 86 % 1027,4 hPa 0,0 l/m 2,7 km/h (1 Bft) S 180 0 min 1,3 C 3,5 C 6,8 km/h (2 Bft)
27.03.2021 19:45 3,9 C 7,5 C 3,4 C 3,7 C 3,2 C 0,0 C 82 % 86 % 1027,4 hPa 0,0 l/m 3,2 km/h (1 Bft) SW 225 0 min 1,1 C 3,2 C 2,4 km/h (1 Bft)
27.03.2021 19:50 4,0 C 7,5 C 3,4 C 3,6 C 2,9 C 0,0 C 82 % 86 % 1027,7 hPa 0,0 l/m 4,3 km/h (1 Bft) S 180 0 min 1,2 C 2,9 C 6,3 km/h (2 Bft)
27.03.2021 19:55 4,0 C 7,5 C 3,5 C 3,7 C 3,1 C 0,0 C 82 % 86 % 1027,7 hPa 0,0 l/m 4,2 km/h (1 Bft) W-SW 247 0 min 1,2 C 3,1 C 9,0 km/h (2 Bft)
27.03.2021 20:00 4,0 C 7,5 C 3,5 C 3,6 C 2,7 C 0,0 C 82 % 86 % 1027,7 hPa 0,0 l/m 5,3 km/h (1 Bft) SW 225 0 min 1,2 C 1,3 C 13,8 km/h (3 Bft)
27.03.2021 20:05 4,1 C 7,5 C 3,5 C 3,6 C 2,7 C 0,0 C 82 % 86 % 1027,7 hPa 0,0 l/m 5,6 km/h (1 Bft) S 180 0 min 1,3 C 1,2 C 4,2 km/h (1 Bft)
27.03.2021 20:10 4,1 C 7,5 C 3,6 C 3,7 C 3,0 C 0,0 C 81 % 85 % 1027,9 hPa 0,0 l/m 4,8 km/h (1 Bft) S 180 0 min 1,1 C 1,9 C 8,9 km/h (2 Bft)
27.03.2021 20:15 4,1 C 7,5 C 3,6 C 4,0 C 3,8 C 0,0 C 81 % 85 % 1027,9 hPa 0,0 l/m 3,4 km/h (1 Bft) W-SW 247 0 min 1,1 C 3,8 C 4,3 km/h (1 Bft)
27.03.2021 20:20 4,1 C 7,5 C 3,7 C 4,1 C 4,1 C 0,0 C 81 % 85 % 1027,9 hPa 0,0 l/m 2,9 km/h (1 Bft) S-SW 202 0 min 1,1 C 4,1 C 8,0 km/h (2 Bft)
27.03.2021 20:25 4,1 C 7,5 C 3,7 C 3,9 C 3,5 C 0,0 C 81 % 85 % 1027,9 hPa 0,0 l/m 4,0 km/h (1 Bft) SW 225 0 min 1,1 C 3,5 C 5,8 km/h (2 Bft)
27.03.2021 20:30 4,0 C 7,7 C 3,3 C 3,5 C 2,4 C 0,0 C 81 % 85 % 1028,6 hPa 0,0 l/m 5,1 km/h (1 Bft) NO 45 0 min 1,0 C 1,1 C 6,4 km/h (2 Bft)
27.03.2021 20:35 3,9 C 7,7 C 3,2 C 3,3 C 2,1 C 0,0 C 82 % 86 % 1028,6 hPa 0,0 l/m 5,0 km/h (1 Bft) SW 225 0 min 1,1 C 0,8 C 2,1 km/h (1 Bft)
27.03.2021 20:40 3,7 C 7,7 C 2,9 C 3,2 C 2,2 C 0,0 C 82 % 87 % 1028,6 hPa 0,7 l/m 3,7 km/h (1 Bft) SW 225 0 min 0,9 C 2,2 C 4,3 km/h (1 Bft)
27.03.2021 20:45 3,3 C 7,8 C 2,5 C 3,0 C 2,4 C 0,0 C 82 % 87 % 1028,6 hPa 0,7 l/m 2,1 km/h (1 Bft) O-SO 112 0 min 0,5 C 2,4 C 0,0 km/h (0 Bft)
27.03.2021 20:50 2,9 C 7,8 C 2,3 C 2,5 C 1,8 C 0,0 C 82 % 88 % 1028,6 hPa 0,0 l/m 1,9 km/h (1 Bft) SW 225 0 min 0,1 C 1,8 C 4,5 km/h (1 Bft)
27.03.2021 20:55 2,8 C 7,7 C 2,3 C 2,5 C 1,8 C 0,0 C 82 % 89 % 1028,6 hPa 0,0 l/m 1,9 km/h (1 Bft) SW 225 0 min 0,0 C 1,8 C 5,1 km/h (1 Bft)
27.03.2021 21:00 2,7 C 7,7 C 2,1 C 2,3 C 1,5 C 0,0 C 83 % 89 % 1028,6 hPa 0,0 l/m 1,9 km/h (1 Bft) SW 225 0 min 0,1 C 1,5 C 1,8 km/h (1 Bft)
27.03.2021 21:05 2,5 C 7,7 C 2,0 C 2,1 C 1,4 C 0,0 C 83 % 90 % 1028,6 hPa 0,0 l/m 1,8 km/h (1 Bft) S 180 0 min -0,1 C 1,4 C 0,0 km/h (0 Bft)
27.03.2021 21:10 2,4 C 7,7 C 1,9 C 2,1 C 1,4 C 0,0 C 84 % 90 % 1028,8 hPa 0,0 l/m 1,3 km/h (1 Bft) S-SO 157 0 min -0,0 C 1,4 C 5,5 km/h (1 Bft)
27.03.2021 21:15 2,5 C 7,7 C 1,9 C 2,2 C 1,5 C 0,0 C 84 % 90 % 1028,8 hPa 0,0 l/m 1,6 km/h (1 Bft) W-SW 247 0 min 0,1 C 1,5 C 1,8 km/h (1 Bft)
27.03.2021 21:20 2,6 C 7,7 C 2,0 C 2,3 C 1,6 C 0,0 C 85 % 91 % 1028,8 hPa 0,0 l/m 1,9 km/h (1 Bft) SO 135 0 min 0,3 C 1,6 C 0,0 km/h (0 Bft)
27.03.2021 21:25 2,7 C 7,7 C 2,0 C 2,4 C 1,7 C 0,0 C 85 % 91 % 1028,8 hPa 0,0 l/m 1,1 km/h (1 Bft) W 270 0 min 0,4 C 1,7 C 3,4 km/h (1 Bft)
27.03.2021 21:30 2,7 C 7,7 C 2,0 C 2,4 C 1,8 C 0,0 C 85 % 91 % 1029,1 hPa 0,0 l/m 0,5 km/h (0 Bft) SW 225 0 min 0,4 C 1,8 C 0,0 km/h (0 Bft)
27.03.2021 21:35 2,7 C 7,7 C 2,1 C 2,4 C 1,8 C 0,0 C 85 % 91 % 1029,1 hPa 0,0 l/m 0,6 km/h (0 Bft) S 180 0 min 0,4 C 1,8 C 2,9 km/h (1 Bft)
27.03.2021 21:40 2,5 C 7,7 C 2,1 C 2,3 C 1,8 C 0,0 C 86 % 91 % 1029,1 hPa 0,0 l/m 0,3 km/h (0 Bft) SO 135 0 min 0,4 C 1,8 C 0,0 km/h (0 Bft)
27.03.2021 21:45 2,5 C 7,7 C 2,0 C 2,3 C 1,8 C 0,0 C 86 % 91 % 1029,1 hPa 0,0 l/m 0,3 km/h (0 Bft) SO 135 0 min 0,4 C 1,8 C 0,0 km/h (0 Bft)
27.03.2021 21:50 2,5 C 7,7 C 2,1 C 2,3 C 1,8 C 0,0 C 86 % 92 % 1029,4 hPa 0,0 l/m 0,0 km/h (0 Bft) SO 135 0 min 0,4 C 1,8 C 0,0 km/h (0 Bft)
27.03.2021 21:55 2,5 C 7,7 C 2,1 C 2,3 C 1,8 C 0,0 C 86 % 92 % 1029,4 hPa 0,0 l/m 0,2 km/h (0 Bft) SW 225 0 min 0,4 C 1,8 C 1,9 km/h (1 Bft)
27.03.2021 22:00 2,7 C 7,7 C 2,1 C 2,4 C 1,8 C 0,0 C 86 % 92 % 1029,4 hPa 0,0 l/m 0,8 km/h (0 Bft) W-SW 247 0 min 0,6 C 1,8 C 2,7 km/h (1 Bft)
27.03.2021 22:05 2,7 C 7,7 C 2,0 C 2,4 C 1,8 C 0,0 C 86 % 92 % 1029,4 hPa 0,0 l/m 1,4 km/h (1 Bft) S-SW 202 0 min 0,6 C 1,8 C 3,2 km/h (1 Bft)
27.03.2021 22:10 2,7 C 7,7 C 1,9 C 2,4 C 1,7 C 0,0 C 87 % 92 % 1029,4 hPa 0,0 l/m 2,3 km/h (1 Bft) SW 225 0 min 0,8 C 1,7 C 4,7 km/h (1 Bft)
27.03.2021 22:15 2,6 C 7,7 C 1,9 C 2,2 C 1,5 C 0,0 C 87 % 92 % 1029,4 hPa 0,0 l/m 2,7 km/h (1 Bft) SW 225 0 min 0,7 C 1,5 C 2,9 km/h (1 Bft)
27.03.2021 22:20 2,6 C 7,7 C 1,9 C 2,1 C 1,2 C 0,0 C 87 % 92 % 1029,4 hPa 0,0 l/m 2,9 km/h (1 Bft) S-SO 157 0 min 0,7 C 1,2 C 4,5 km/h (1 Bft)
27.03.2021 22:25 2,6 C 7,7 C 1,9 C 2,2 C 1,3 C 0,0 C 87 % 92 % 1029,4 hPa 0,0 l/m 3,1 km/h (1 Bft) SW 225 0 min 0,7 C 1,3 C 5,0 km/h (1 Bft)
27.03.2021 22:30 2,7 C 7,7 C 1,9 C 1,9 C 0,4 C 0,0 C 87 % 92 % 1029,8 hPa 0,0 l/m 4,3 km/h (1 Bft) SW 225 0 min 0,8 C 0,4 C 4,0 km/h (1 Bft)
27.03.2021 22:35 2,7 C 7,7 C 1,8 C 1,9 C 0,4 C 0,0 C 87 % 92 % 1029,8 hPa 0,0 l/m 4,3 km/h (1 Bft) W-SW 247 0 min 0,8 C 0,4 C 3,1 km/h (1 Bft)
27.03.2021 22:40 2,7 C 7,5 C 1,7 C 2,1 C 0,8 C 0,0 C 87 % 92 % 1029,8 hPa 0,0 l/m 3,4 km/h (1 Bft) S-SW 202 0 min 0,8 C 0,8 C 2,9 km/h (1 Bft)
27.03.2021 22:45 2,6 C 7,5 C 1,7 C 2,0 C 0,7 C 0,0 C 87 % 92 % 1029,8 hPa 0,0 l/m 3,4 km/h (1 Bft) SW 225 0 min 0,7 C 0,7 C 5,3 km/h (1 Bft)
27.03.2021 22:50 2,7 C 7,5 C 1,6 C 2,0 C 0,5 C 0,0 C 87 % 92 % 1029,9 hPa 0,0 l/m 3,7 km/h (1 Bft) SW 225 0 min 0,8 C 0,5 C 4,8 km/h (1 Bft)
27.03.2021 22:55 2,7 C 7,5 C 1,6 C 1,9 C 0,4 C 0,0 C 87 % 92 % 1029,9 hPa 0,0 l/m 3,9 km/h (1 Bft) S 180 0 min 0,8 C 0,4 C 4,8 km/h (1 Bft)
27.03.2021 23:00 2,6 C 7,5 C 1,5 C 2,1 C 1,1 C 0,0 C 87 % 92 % 1029,9 hPa 0,0 l/m 2,7 km/h (1 Bft) SW 225 0 min 0,7 C 1,1 C 3,7 km/h (1 Bft)
27.03.2021 23:05 2,6 C 7,5 C 1,5 C 2,1 C 1,1 C 0,0 C 86 % 92 % 1029,9 hPa 0,0 l/m 1,3 km/h (1 Bft) SW 225 0 min 0,5 C 1,1 C 0,0 km/h (0 Bft)
27.03.2021 23:10 2,5 C 7,5 C 1,4 C 2,0 C 1,1 C 0,0 C 86 % 92 % 1030,1 hPa 0,0 l/m 0,5 km/h (0 Bft) N-NO 22 0 min 0,4 C 1,1 C 0,0 km/h (0 Bft)
27.03.2021 23:15 2,4 C 7,5 C 1,5 C 1,9 C 1,0 C 0,0 C 86 % 92 % 1030,1 hPa 0,0 l/m 0,3 km/h (0 Bft) SW 225 0 min 0,3 C 1,0 C 1,9 km/h (1 Bft)
27.03.2021 23:20 2,4 C 7,5 C 1,5 C 2,0 C 1,2 C 0,0 C 86 % 92 % 1030,1 hPa 0,0 l/m 0,5 km/h (0 Bft) SW 225 0 min 0,3 C 1,2 C 0,0 km/h (0 Bft)
27.03.2021 23:25 2,4 C 7,5 C 1,5 C 2,0 C 1,2 C 0,0 C 86 % 92 % 1030,1 hPa 0,0 l/m 0,5 km/h (0 Bft) W-SW 247 0 min 0,3 C 1,2 C 0,0 km/h (0 Bft)
27.03.2021 23:30 2,4 C 7,5 C 1,5 C 2,0 C 1,2 C 0,0 C 86 % 92 % 1030,8 hPa 0,0 l/m 0,3 km/h (0 Bft) SW 225 0 min 0,3 C 1,2 C 2,3 km/h (1 Bft)
27.03.2021 23:35 2,4 C 7,5 C 1,5 C 2,0 C 1,2 C 0,0 C 86 % 92 % 1030,8 hPa 0,0 l/m 0,3 km/h (0 Bft) S-SW 202 0 min 0,3 C 1,2 C 0,0 km/h (0 Bft)
27.03.2021 23:40 2,4 C 7,5 C 1,5 C 2,0 C 1,2 C 0,0 C 86 % 92 % 1030,8 hPa 0,0 l/m 0,3 km/h (0 Bft) W-SW 247 0 min 0,3 C 1,2 C 0,0 km/h (0 Bft)
27.03.2021 23:45 2,4 C 7,5 C 1,7 C 2,0 C 1,3 C 0,0 C 86 % 92 % 1030,8 hPa 0,0 l/m 0,3 km/h (0 Bft) SW 225 0 min 0,3 C 1,3 C 0,0 km/h (0 Bft)
27.03.2021 23:50 2,5 C 7,5 C 1,8 C 2,2 C 1,5 C 0,0 C 87 % 92 % 1030,6 hPa 0,0 l/m 0,8 km/h (0 Bft) W-SW 247 0 min 0,6 C 1,5 C 2,9 km/h (1 Bft)
27.03.2021 23:55 2,7 C 7,5 C 1,9 C 2,4 C 1,7 C 0,0 C 87 % 92 % 1030,6 hPa 0,0 l/m 1,3 km/h (1 Bft) O-NO 67 0 min 0,8 C 1,7 C 1,6 km/h (1 Bft)
_ Min-Zeit 21:10 19:45 23:10 22:30 22:30 00:00 13:55 12:50 05:10 - 00:00 - - - 17:05 14:20 00:00
Minimum _ 2,4 C 7,5 C 1,4 C 1,9 C 0,4 C 0,0 C 51 % 49 % 1016,1 hPa - 0,0 km/h (0 Bft) - - - -0,5 C -3,2 C 0,0 km/h (0 Bft)
_ Max-Zeit 07:45 00:05 12:00 12:05 12:00 12:00 04:20 21:50 23:30 09:20 14:10 - - 00:00 08:20 12:00 14:05
Maximum _ 10,5 C 9,2 C 14,7 C 13,4 C 13,3 C 3,2 C 88 % 92 % 1030,8 hPa 0,7 l/m 20,3 km/h
NW (4 Bft)
- - 0 min 5,9 C 13,3 C 40,4 km/h
S (6 Bft)
Durchschnitt _ 5,6 C 8,1 C 5,4 C 5,6 C 4,9 C 0,3 C 78 % 82 % 1022,1 hPa #2,7 l/m 5,1 km/h (1 Bft) SW - #0 min. 1,9 C 4,2 C 6,9 km/h (2 Bft)
2021 www.wetterstation-wechselburg.de